View from above orbital plane
|
View from above satellite
|
Ground track
|
The orbit data is extracted from the following two-line orbital elements,
1 20453U 90008B 21016.78139012 .00001579 00000-0 88411-4 0 9990
2 20453 35.6267 77.9817 0279312 286.2765 70.7399 14.86155660642946
Epoch (UTC): | 16 January 2021 18:45:12 |
Eccentricity: | 0.0279312 |
inclination: | 35.6267° |
perigee height: | 415 km |
apogee height: | 805 km |
right ascension of ascending node: | 77.9817° |
argument of perigee: | 286.2765° |
revolutions per day: | 14.86155660 |
mean anomaly at epoch: | 70.7399° |
orbit number at epoch: | 64294 |
The dashed part of the orbit path shows where the satellite is in the earth's shadow,
|
|